Weather in Agonda

India     15°03′26″N   73°59′00″E
temp.,
°C
wind,
m/s
gust,
m/s
humid.,
%
clouds,
%
prec.,
mm/h
press.,
hPa
HPBL,
m
28 february, sun
sun2823:30+26n45770 0.0 1009273
02:30+25nne22760 0.0 1007142
05:30+24se22730 0.0 1007158
08:30+27se12520 0.0 1010189
11:30+30ssw44490 0.0 1010571
14:30+30sw45630 0.0 1006365
17:30+29sw23650 0.0 1006440
20:30+27nne11770 0.0 100993
1 march, mon
mon123:30+26ese22790 0.0 1011118
02:30+25ese22830 0.0 1009142
05:30+25se34880 0.0 1010259
08:30+26ese458334 0.1 1013376
11:30+29s557422 0.1 1013674
14:30+29ssw55737 0.0 1009693
17:30+28sw34735 0.0 1009632
20:30+27w12782 0.0 1012460
2 march, tue
tue223:30+26ne22813 0.0 1013226
02:30+25e23870 0.0 1011126
05:30+24ese23880 0.0 1010150
08:30+26e11750 0.0 1013234
11:30+28sw32670 0.0 1013447
14:30+29wsw456912 0.0 1009431
17:30+28w33686 0.0 1008438
20:30+26nnw34787 0.0 1010354
3 march, wed
wed323:30+25nne23813 0.0 1011181
02:30+25se22820 0.0 1009142
05:30+24ese22830 0.0 1008158
08:30+26se22700 0.0 1011302
11:30+28sw32650 0.0 1010409
14:30+29wsw44651 0.0 1007397
17:30+29w33651 0.0 1006372
20:30+26n34750 0.0 1009218
4 march, thu
thu423:30+25nne237416 0.0 1009105
02:30+25se236933 0.0 1007132
05:30+25se457659 0.0 1008258
08:30+27sse456698 0.0 1011329
11:30+29s566687 0.0 1012496
14:30+29ssw577636 0.0 1008482
17:30+28sw347323 0.0 1007539
20:30+26nw12819 0.0 1010387